Regional Weather Roundup
Issued by NWS Albany, NY

Home | Current Version | Previous Version | Text Only | Print | Product List | Glossary On
Versions: 1 2 3 4 5 6 7 8 9 10 11 12 13 14 15 16 17 18 19 20 21 22 23 24 25 26 27 28 29 30 31 32 33 34 35 36 37 38 39 40 41 42 43 44 45 46 47 48 49 50
000
ASUS41 KALY 060210
RWRALY

NEW YORK STATE HOURLY WEATHER ROUNDUP
NATIONAL WEATHER SERVICE ALBANY NY
1000 PM EDT TUE MAY 05 2015

NOTE: "FAIR" INDICATES FEW OR NO CLOUDS BELOW 12,000 FEET WITH NO
SIGNIFICANT WEATHER AND/OR NO OBSTRUCTIONS TO VISIBILITY.

NYZ032-033-038>043-046>054-057>066-NYZ062>081-060300-
EAST


CITY           SKY/WX    TMP DP  RH WIND       PRES   REMARKS
ALBANY         CLOUDY    66  36  32 NW7       30.21R
GLENS FALLS    CLOUDY    60  42  51 N7        30.22R
POUGHKEEPSIE   PTCLDY    71  41  33 N3        30.19R
MONTGOMERY     MOCLDY    68  45  43 NE9       30.20R
WHITE PLAINS   MOCLDY    66  51  58 CALM      30.18S
ISLIP          MOCLDY    64  53  67 SW6       30.17S
NEW YORK CITY  MOCLDY    69  52  54 S6        30.17R
CENTRAL PARK   PTCLDY    70  52  52 CALM      30.21
$$

NYZ005>009-017-018-044>046-055-056-060300-
CENTRAL


CITY           SKY/WX    TMP DP  RH WIND       PRES   REMARKS
FULTON         CLOUDY    54  39  57 CALM      30.27R
SYRACUSE       CLOUDY    59  40  49 W6        30.26R
ROME           CLOUDY    56  43  61 CALM      30.26R
ELMIRA         LGT RAIN  58  57  97 CALM      30.27R
BINGHAMTON     CLOUDY    62  44  51 N6        30.27R
MONTICELLO     CLOUDY    66  39  37 NW3       30.26R
$$

NYZ026>034-041>043-060300-
NORTH


CITY           SKY/WX    TMP DP  RH WIND       PRES   REMARKS
WATERTOWN      CLOUDY    50  43  77 CALM      30.26R
FORT DRUM      NOT AVBL
MASSENA        MOCLDY    52  38  58 SW3       30.25R
SARANAC LAKE   CLOUDY    41  36  82 CALM      30.26R
PLATTSBURGH    CLOUDY    57  34  41 W3        30.23S
$$

NYZ001>004-010>016-019>021-060300-
WEST


CITY           SKY/WX    TMP DP  RH WIND       PRES   REMARKS
NIAGARA FALLS  CLOUDY    54  51  90 S3        30.27R
BUFFALO        LGT RAIN  57  54  89 W3        30.28R
DUNKIRK        LGT RAIN  53  52  96 NE5       30.28S FOG
JAMESTOWN      CLOUDY    54  50  87 E8        30.28S
WELLSVILLE     LGT RAIN  56  52  86 CALM      30.31R FOG
ROCHESTER      CLOUDY    60  43  53 CALM      30.28R
PENN YAN       CLOUDY    59  50  72 CALM      30.28R
$$

             KEY
       WCI = WIND CHILL INDEX
       VSB = VISIBILITY
       HX  = HEAT INDEX
$$


USA.gov is the U.S. government's official web portal to all federal, state and local government web resources and services.